Temp
14 14 14 14 14 14 14 14 14 14 14 14 14 14 14 14 14 14 14 14 14 14 13 13 14 14 14 14 13 13 12 12 12
14 14 14 14 14 14 14 14 14 14 14 14 14 14 14 14 13 13 14 14 14 14 13 13 14 14 14 13 12 12 12 12 12
14 14 14 13 13 14 13 13 13 13 13 13 13 13 14 14 13 13 13 13 13 14 13 14 14 13 13 13 12 12 12 12 12
13 14 13 13 13 13 13 13 13 13 13 13 13 13 13 13 13 13 13 13 13 13 13 13 13 13 13 13 12 12 12 12 12
13 14 13 13 12 13 12 13 13 13 13 13 12 13 13 13 13 12 12 13 12 13 13 13 13 12 12 12 12 12 12 12 12
13 13 13 13 13 12 13 13 13 12 12 12 12 12 13 13 12 12 12 12 12 12 12 12 12 12 12 12 12 12 12 12 12
13 13 12 12 12 12 12 12 12 12 12 12 12 12 12 12 11 11 12 12 12 12 12 11 11 11 11 11 11 11 12 12 12
13 13 13 13 12 12 12 12 11 11 11 11 11 11 11 11 11 11 11 11 11 11 11 11 11 11 10 10 10 10 11 11 11
12 12 12 12 12 12 12 11 11 11 11 11 11 11 10 10 10 10 10 10 10 10 10 10 10 10 9 9 10 9 9 10 10
11 11 11 11 11 11 11 11 11 10 10 10 10 10 10 10 10 10 10 9 9 9 9 8 10 10 10 10 10 10 9 9 9
10 11 10 10 10 10 10 10 10 10 9 9 9 9 9 9 9 9 9 8 8 8 8 8 9 9 8 8 9 9 10 8 8
10 10 10 9 9 9 9 9 9 9 8 9 9 9 9 9 8 8 8 9 9 9 9 9 9 8 9 9 10 10 10 10 9
9 9 9 8 9 8 9 9 9 9 8 9 8 8 8 8 8 8 7 8 8 8 9 8 8 8 7 5 8 9 9 9 9
8 8 9 9 9 8 9 9 9 9 9 8 7 7 7 7 7 7 7 7 7 7 7 8 8 8 5 2 2 3 5 6 6
8 8 8 9 9 9 8 8 8 8 8 7 6 5 5 5 5 5 5 5 6 6 6 6 6 6 6 6 3 2 3 3 3
8 7 7 8 8 8 8 7 8 7 6 7 4 3 3 3 3 4 4 4 4 5 5 5 5 5 5 5 5 3 1 1 2
6 7 7 7 7 7 7 7 7 6 6 6 5 1 0 1 2 2 2 3 3 3 4 4 4 4 4 4 4 4 3 1 0
6 6 6 7 7 7 7 7 7 7 5 5 5 2 1 0 0 1 1 2 2 2 3 3 3 3 3 3 3 2 2 2 0
5 5 5 6 6 6 6 6 6 7 7 5 5 5 5 2 -1 -0 0 1 1 1 2 2 2 2 2 2 2 2 1 1 1
4 3 4 4 4 4 5 4 4 5 5 5 5 4 4 4 3 -0 -0 -0 -0 0 0 1 1 1 1 1 1 1 1 1 0
Height
1542 1544 1546 1547 1549 1552 1556 1558 1560 1561 1564 1565 1567 1569 1570 1572 1573 1575 1576 1577 1578 1579 1580 1581 1582 1583 1583 1583 1583 1583 1583 1584 1584
1543 1546 1548 1549 1551 1554 1557 1559 1561 1564 1565 1567 1569 1571 1573 1574 1575 1576 1578 1579 1580 1581 1582 1583 1584 1585 1585 1585 1586 1586 1587 1587 1588
1543 1546 1549 1552 1553 1555 1558 1561 1563 1565 1567 1569 1570 1572 1574 1576 1577 1578 1580 1581 1582 1582 1583 1584 1585 1586 1587 1588 1589 1589 1590 1591 1591
1542 1546 1549 1552 1555 1556 1560 1562 1564 1566 1568 1570 1572 1574 1575 1577 1578 1580 1581 1582 1583 1584 1585 1586 1587 1588 1589 1590 1591 1592 1593 1594 1594
1542 1546 1548 1551 1553 1558 1561 1562 1565 1568 1569 1571 1573 1575 1577 1578 1579 1581 1582 1583 1584 1585 1587 1587 1589 1590 1590 1591 1593 1594 1595 1596 1596
1543 1545 1548 1550 1553 1556 1559 1563 1565 1568 1570 1573 1574 1576 1578 1579 1580 1583 1584 1585 1585 1586 1587 1589 1590 1591 1592 1593 1594 1595 1596 1597 1597
1542 1545 1548 1550 1553 1555 1559 1563 1566 1568 1570 1573 1575 1577 1579 1580 1582 1585 1586 1586 1587 1587 1589 1590 1591 1592 1593 1595 1596 1596 1596 1597 1598
1543 1544 1547 1549 1552 1555 1558 1561 1565 1567 1570 1573 1575 1577 1579 1581 1583 1586 1587 1587 1588 1589 1590 1590 1593 1594 1595 1595 1596 1597 1598 1598 1599
1542 1544 1546 1549 1552 1554 1556 1560 1563 1565 1568 1572 1573 1575 1579 1581 1583 1586 1588 1588 1589 1590 1591 1591 1592 1594 1596 1596 1596 1597 1598 1598 1599
1540 1542 1545 1547 1550 1553 1555 1559 1562 1565 1568 1570 1572 1574 1577 1580 1582 1584 1585 1588 1588 1589 1591 1590 1593 1594 1594 1594 1595 1596 1597 1598 1598
1538 1540 1541 1544 1548 1549 1553 1556 1559 1562 1564 1568 1571 1573 1575 1578 1581 1583 1582 1585 1586 1588 1589 1590 1592 1593 1593 1594 1595 1595 1596 1596 1597
1535 1538 1540 1540 1546 1548 1551 1554 1558 1561 1565 1567 1570 1573 1575 1579 1582 1583 1582 1583 1586 1587 1588 1590 1591 1592 1593 1594 1594 1594 1595 1595 1596
1533 1536 1539 1542 1542 1546 1549 1554 1557 1561 1564 1566 1569 1572 1574 1578 1580 1581 1582 1583 1585 1586 1588 1588 1590 1591 1592 1593 1593 1594 1594 1594 1595
1531 1535 1537 1539 1543 1547 1550 1553 1557 1559 1562 1565 1568 1571 1574 1576 1578 1580 1581 1582 1584 1585 1587 1587 1589 1590 1590 1593 1593 1593 1593 1593 1594
1528 1532 1535 1538 1540 1544 1548 1551 1554 1557 1559 1562 1567 1571 1573 1575 1577 1579 1580 1581 1583 1585 1586 1587 1588 1589 1590 1591 1591 1592 1593 1594 1594
1524 1528 1532 1535 1538 1542 1546 1548 1551 1555 1558 1559 1566 1570 1573 1575 1577 1578 1579 1581 1583 1585 1586 1587 1588 1589 1589 1590 1590 1591 1593 1593 1593
1521 1525 1528 1532 1535 1540 1542 1545 1547 1552 1555 1558 1561 1569 1575 1575 1576 1577 1579 1581 1583 1584 1585 1586 1587 1588 1589 1589 1590 1591 1591 1592 1592
1518 1522 1526 1529 1533 1536 1539 1542 1546 1547 1552 1556 1558 1564 1567 1571 1574 1576 1578 1579 1581 1583 1585 1586 1586 1587 1587 1587 1588 1589 1590 1590 1590
1514 1519 1523 1527 1530 1533 1538 1541 1544 1547 1549 1553 1555 1557 1559 1564 1571 1574 1575 1577 1579 1580 1582 1583 1583 1584 1585 1585 1585 1586 1586 1586 1587
1512 1517 1520 1525 1529 1531 1536 1539 1542 1546 1548 1550 1552 1554 1557 1559 1562 1566 1571 1574 1576 1577 1579 1580 1581 1581 1582 1582 1582 1583 1583 1583 1583
Wind_Speed
22 23 21 17 17 22 23 24 24 24 23 22 21 20 20 21 21 21 21 20 20 20 21 19 18 14 13 14 17 19 21 21 22
20 18 18 23 23 24 23 23 23 22 21 20 20 19 18 19 20 20 18 19 20 19 19 18 15 14 16 17 19 22 23 19 21
21 20 21 20 21 22 22 22 22 21 20 20 19 19 18 18 19 19 17 17 18 18 16 14 15 15 17 17 19 19 19 20 18
21 20 19 22 21 19 21 23 22 22 21 19 19 18 17 18 19 18 16 15 16 16 15 15 14 15 16 17 18 18 17 17 14
24 24 25 25 24 23 22 23 22 19 18 19 18 18 18 18 18 16 15 16 16 16 15 15 15 15 15 16 16 15 15 14 12
21 22 26 26 24 24 23 22 21 20 18 17 17 16 18 21 22 20 18 20 20 19 18 18 18 18 17 15 14 13 12 11 9
23 22 24 25 25 24 22 21 20 19 18 17 15 14 18 19 23 19 17 18 19 19 19 20 20 20 19 17 18 16 14 10 8
19 21 22 24 24 23 22 22 22 20 19 18 16 15 18 20 22 19 16 16 17 17 15 15 16 18 18 16 15 14 14 13 11
21 21 21 22 24 24 25 24 23 22 20 18 18 18 17 20 22 19 19 18 17 18 16 13 11 8 9 8 9 11 11 10 9
20 22 24 23 24 23 24 23 22 22 22 20 20 20 19 19 19 23 21 19 18 15 16 17 10 9 10 9 6 7 10 10 10
20 22 26 28 25 25 24 24 24 23 22 22 20 18 17 17 18 21 23 25 22 18 12 9 10 9 5 4 5 5 4 5 7
19 19 21 25 27 26 23 23 23 24 24 21 20 19 19 17 17 19 19 20 20 16 13 10 8 7 5 3 3 5 5 5 6
20 19 18 21 20 22 22 23 24 23 23 22 20 18 17 17 17 18 19 17 15 15 13 9 8 7 3 5 2 3 2 2 3
20 21 22 22 21 21 22 24 24 25 24 22 21 19 17 17 16 15 15 13 12 10 10 9 7 5 7 12 13 9 7 5 6
24 25 25 26 26 27 27 27 27 27 27 25 23 20 18 17 16 15 14 13 12 11 9 7 6 6 7 8 9 10 8 6 7
27 27 27 28 28 29 29 29 28 28 28 28 25 22 19 18 17 15 14 13 13 11 9 8 7 6 6 5 5 6 10 10 8
27 27 27 27 28 29 30 30 31 30 31 30 27 18 16 16 16 15 14 13 13 11 10 8 6 5 4 3 2 1 2 4 7
26 26 26 28 29 29 30 30 30 31 31 29 16 12 9 21 17 15 13 11 10 9 8 6 4 3 1 1 1 1 2 2 3
28 28 28 28 29 29 29 29 29 28 30 31 19 13 11 15 15 19 15 12 9 6 5 4 3 2 1 2 3 4 5 5 5
29 29 28 28 28 28 28 29 29 28 26 27 23 16 13 16 13 20 22 17 11 7 5 3 2 3 3 4 6 8 9 10 10
Wind_Direction
148 148 150 145 146 149 144 141 137 132 130 128 126 126 124 122 117 115 119 122 122 125 119 116 108 95 85 82 75 80 90 97 90
146 138 141 143 140 142 146 144 141 137 135 133 131 128 127 125 122 118 117 118 122 121 118 114 103 98 92 92 82 84 84 92 94
154 152 140 138 139 143 146 142 142 142 138 135 133 132 131 129 124 121 120 125 120 123 125 116 107 102 95 98 92 89 83 88 86
178 177 160 150 154 158 150 151 150 144 140 137 136 135 133 129 125 124 118 123 127 129 124 118 112 106 100 99 100 102 101 96 88
172 164 162 156 155 156 155 157 153 150 145 141 141 141 137 130 125 124 123 123 124 127 124 119 114 113 111 108 108 106 105 103 96
170 168 168 172 166 163 167 163 159 155 150 147 145 147 139 131 115 111 118 118 118 119 122 118 113 109 109 111 117 117 118 111 105
172 173 172 175 173 177 172 166 163 162 158 154 154 155 148 140 124 114 115 117 120 115 111 113 115 112 109 113 112 111 111 115 117
179 177 181 183 181 179 174 172 171 169 167 165 165 162 152 140 129 120 113 120 119 118 119 124 123 122 118 123 111 106 107 109 99
179 185 184 187 182 183 181 179 175 172 173 173 170 164 164 154 140 143 121 121 126 129 124 131 133 152 143 130 132 121 124 117 134
188 189 185 187 183 182 179 178 178 176 174 171 167 168 169 167 167 155 146 137 130 140 128 114 161 187 154 143 141 136 126 124 130
193 198 194 184 186 185 186 185 185 182 178 171 170 169 171 172 172 177 170 135 143 144 156 175 183 204 203 176 193 196 195 191 176
203 205 201 190 184 185 184 182 178 172 170 167 161 158 159 161 164 166 181 183 178 189 186 183 186 194 246 234 198 205 214 215 209
204 208 201 192 189 179 181 178 176 173 171 169 166 172 172 172 172 169 176 178 198 211 224 228 220 223 211 91 175 145 190 197 194
207 206 200 188 184 187 187 184 186 183 180 171 168 168 169 170 170 173 175 175 177 187 206 217 214 200 123 92 83 88 85 84 77
207 206 204 200 199 199 196 193 183 182 179 171 162 158 158 158 159 160 160 159 159 159 158 155 154 148 149 130 106 88 86 79 69
205 202 200 198 197 196 193 190 189 178 177 173 155 147 150 154 154 152 152 151 151 151 150 146 137 125 118 122 120 102 76 65 67
199 199 200 200 197 195 194 195 185 182 177 171 161 143 148 157 157 155 156 155 148 149 148 145 141 135 127 119 114 144 114 57 42
196 195 198 198 196 198 197 197 200 189 183 177 170 157 175 170 172 169 167 164 160 160 156 157 162 163 171 192 239 227 254 262 0
193 194 195 197 196 197 197 197 200 200 193 187 188 189 187 175 179 188 185 182 181 183 179 178 193 209 235 272 287 291 285 289 306
193 192 192 193 193 194 196 195 196 199 201 202 204 200 192 190 182 189 194 195 194 199 208 213 242 270 283 290 296 306 304 302 302